Location: La Bastide
(43.1661°N, 1.2755°E)
Time: 14:45:49
(UTC+00:00)

Tiangong - Visible Passes

Search period start: 15 February 2026 00:00
Search period end: 25 February 2026 00:00
Orbit: 386 x 391 km, 41.5° (Epoch: 15 February)

Date Brightness Start Highest point End Pass type
(mag) Time Alt. Az. Time Alt. Az. Time Alt. Az.
15 Feb -1.9 18:32:20 10° WSW 18:35:29 63° S 18:37:02 26° ESE visible
15 Feb 1.5 20:09:12 10° W 20:09:20 11° W 20:09:20 11° W visible
16 Feb -1.8 19:10:47 10° W 19:13:46 57° SSW 19:13:46 57° SSW visible
17 Feb -1.9 18:12:21 10° W 18:15:30 64° S 18:18:12 13° ESE visible
17 Feb 0.6 19:49:19 10° W 19:50:30 19° WSW 19:50:30 19° WSW visible
18 Feb -1.4 18:50:45 10° W 18:53:49 44° SSW 18:54:55 30° SE visible
19 Feb 0.0 19:29:24 10° WSW 19:31:41 21° SSW 19:31:41 21° SSW visible
20 Feb -0.6 18:30:37 10° W 18:33:29 31° SSW 18:36:11 11° SE visible
21 Feb 0.6 19:09:44 10° WSW 19:11:24 13° SSW 19:13:03 10° S visible
22 Feb 0.3 18:10:29 10° WSW 18:12:56 20° SSW 18:15:23 10° SSE visible
